| time (UTC) | temp C | wind direction | speed KPH | gust KPH | rain 1hr cm | rain 24hr cm | rain mn cm | humidity % | barometer mb |
| 20260510043101 | 23 | 69 | 0.0 | 4.8 | 0.03 | 3.63 | 3.63 | 90 | 1011.7 |
| 20260510041559 | 23 | 63 | 0.0 | 3.2 | 0.03 | 3.63 | 3.63 | 90 | 1011.7 |
| 20260510040108 | 23 | 63 | 0.0 | 1.6 | 0.03 | 3.63 | 3.63 | 90 | 1011.5 |
| 20260510034602 | 23 | 63 | 0.0 | 3.2 | 0.03 | 3.63 | 3.63 | 89 | 1011.6 |
| 20260510033101 | 23 | 63 | 0.0 | 4.8 | 0.00 | 3.61 | 3.61 | 90 | 1011.9 |
| 20260510031559 | 23 | 63 | 1.6 | 4.8 | 0.00 | 3.61 | 3.61 | 90 | 1011.6 |
| 20260510030100 | 23 | 67 | 0.0 | 4.8 | 0.00 | 3.61 | 3.61 | 90 | 1011.1 |
| 20260510024559 | 23 | 67 | 0.0 | 3.2 | 0.00 | 3.61 | 3.61 | 90 | 1010.6 |
| 20260510023105 | 23 | 67 | 1.6 | 6.4 | 0.00 | 3.61 | 3.61 | 90 | 1010.3 |
| 20260510021559 | 23 | 65 | 0.0 | 4.8 | 0.00 | 3.61 | 3.61 | 89 | 1010.1 |
| 20260510020100 | 23 | 192 | 1.6 | 6.4 | 0.00 | 3.61 | 3.61 | 90 | 1009.5 |
| 20260510020002 | 23 | 192 | 1.6 | 6.4 | 0.00 | 3.61 | 3.61 | 90 | 1009.5 |
| 20260510014559 | 23 | 187 | 0.0 | 0.0 | 0.00 | 3.61 | 3.61 | 89 | 1008.9 |
| 20260510013059 | 23 | 187 | 0.0 | 3.2 | 0.00 | 3.61 | 3.61 | 89 | 1009.0 |
| 20260510010136 | 22 | 178 | 3.2 | 12.9 | 0.03 | 3.61 | 3.61 | 89 | 1008.9 |
| 20260510010001 | 22 | 178 | 4.8 | 12.9 | 0.03 | 3.61 | 3.61 | 90 | 1008.9 |
| 20260510004607 | 21 | 49 | 3.2 | 6.4 | 0.66 | 3.61 | 3.61 | 91 | 1008.6 |
| 20260510003100 | 21 | 49 | 0.0 | 9.7 | 3.23 | 3.61 | 3.61 | 91 | 1008.6 |
| 20260510001604 | 20 | 52 | 3.2 | 11.3 | 3.61 | 3.61 | 3.61 | 90 | 1009.1 |
| 20260510000059 | 21 | 123 | 4.8 | 24.1 | 3.58 | 3.58 | 3.58 | 90 | 1008.8 |
| 20260509234642 | 21 | 56 | 1.6 | 37.0 | 2.92 | 2.92 | 2.92 | 87 | 1009.1 |
| 20260509233100 | 26 | 94 | 6.4 | 20.9 | 0.38 | 0.38 | 0.38 | 75 | 1009.0 |
| 20260509231558 | 30 | 325 | 3.2 | 12.9 | 0.00 | 0.00 | 0.00 | 75 | 1008.3 |
| 20260509230059 | 31 | 190 | 3.2 | 9.7 | 0.00 | 0.00 | 0.00 | 74 | 1008.2 |
| 20260509230001 | 31 | 177 | 3.2 | 9.7 | 0.00 | 0.00 | 0.00 | 74 | 1008.0 |
| 20260509224558 | 31 | 146 | 1.6 | 6.4 | 0.00 | 0.00 | 0.00 | 72 | 1007.9 |
| 20260509223059 | 32 | 150 | 0.0 | 3.2 | 0.00 | 0.00 | 0.00 | 72 | 1007.9 |
| 20260509221559 | 32 | 79 | 0.0 | 4.8 | 0.00 | 0.00 | 0.00 | 70 | 1007.7 |
| 20260509220108 | 32 | 220 | 1.6 | 6.4 | 0.00 | 0.00 | 0.00 | 72 | 1007.9 |
| 20260509214603 | 32 | 220 | 3.2 | 8.0 | 0.00 | 0.00 | 0.00 | 72 | 1007.7 |
| 20260509213059 | 32 | 227 | 4.8 | 8.0 | 0.00 | 0.00 | 0.00 | 73 | 1007.7 |
| 20260509211559 | 31 | 229 | 1.6 | 6.4 | 0.00 | 0.00 | 0.00 | 73 | 1007.7 |
| 20260509210100 | 32 | 144 | 1.6 | 8.0 | 0.00 | 0.00 | 0.00 | 71 | 1007.9 |
| 20260509204606 | 32 | 53 | 1.6 | 4.8 | 0.00 | 0.00 | 0.00 | 72 | 1008.2 |
| 20260509203140 | 31 | 292 | 0.0 | 6.4 | 0.00 | 0.00 | 0.00 | 71 | 1008.3 |
| 20260509201619 | 31 | 294 | 0.0 | 6.4 | 0.00 | 0.00 | 0.00 | 73 | 1008.5 |
| 20260509200108 | 31 | 321 | 3.2 | 4.8 | 0.00 | 0.00 | 0.00 | 74 | 1008.8 |
| 20260509200002 | 31 | 321 | 1.6 | 4.8 | 0.00 | 0.00 | 0.00 | 72 | 1008.8 |
| 20260509194559 | 31 | 323 | 3.2 | 6.4 | 0.00 | 0.00 | 0.00 | 75 | 1008.9 |
| 20260509193133 | 31 | 238 | 3.2 | 8.0 | 0.00 | 0.00 | 0.00 | 73 | 1009.0 |
| 20260509191615 | 30 | 213 | 0.0 | 4.8 | 0.00 | 0.00 | 0.00 | 76 | 1009.0 |
| 20260509190057 | 30 | 213 | 0.0 | 6.4 | 0.00 | 0.00 | 0.00 | 75 | 1009.0 |
| 20260509184601 | 29 | 209 | 0.0 | 4.8 | 0.00 | 0.08 | 0.00 | 77 | 1009.1 |
| 20260509183058 | 29 | 209 | 3.2 | 8.0 | 0.00 | 0.08 | 0.00 | 78 | 1009.5 |
| 20260509181602 | 28 | 209 | 1.6 | 8.0 | 0.00 | 0.08 | 0.00 | 79 | 1009.7 |
| 20260509180106 | 28 | 144 | 1.6 | 4.8 | 0.00 | 0.08 | 0.00 | 80 | 1009.9 |
| 20260509174612 | 28 | 163 | 1.6 | 9.7 | 0.00 | 0.08 | 0.00 | 82 | 1010.0 |
| 20260509173105 | 28 | 194 | 1.6 | 9.7 | 0.00 | 0.08 | 0.00 | 83 | 1010.5 |
| 20260509171559 | 28 | 160 | 3.2 | 8.0 | 0.00 | 0.08 | 0.00 | 85 | 1010.6 |
| 20260509170001 | 27 | 116 | 0.0 | 3.2 | 0.00 | 0.08 | 0.00 | 88 | 1010.9 |
| 20260509164609 | 27 | 117 | 0.0 | 4.8 | 0.00 | 0.08 | 0.00 | 90 | 1010.8 |
| 20260509163100 | 26 | 132 | 0.0 | 3.2 | 0.00 | 0.08 | 0.00 | 90 | 1010.8 |
| 20260509161601 | 26 | 132 | 0.0 | 3.2 | 0.00 | 0.08 | 0.00 | 91 | 1010.8 |
| 20260509160058 | 26 | 132 | 0.0 | 3.2 | 0.00 | 0.08 | 0.00 | 91 | 1010.6 |
| 20260509160002 | 26 | 132 | 0.0 | 3.2 | 0.00 | 0.08 | 0.00 | 91 | 1010.6 |
| 20260509154600 | 26 | 132 | 0.0 | 3.2 | 0.00 | 0.10 | 0.00 | 91 | 1010.8 |
| 20260509153105 | 25 | 132 | 0.0 | 1.6 | 0.00 | 0.10 | 0.00 | 92 | 1010.7 |
| 20260509151608 | 25 | 132 | 0.0 | 4.8 | 0.00 | 0.10 | 0.00 | 93 | 1010.7 |
| 20260509150058 | 25 | 132 | 0.0 | 1.6 | 0.00 | 0.10 | 0.00 | 93 | 1010.4 |
| 20260509144604 | 25 | 132 | 0.0 | 3.2 | 0.00 | 0.10 | 0.00 | 94 | 1010.4 |
| 20260509143100 | 24 | 132 | 0.0 | 0.0 | 0.00 | 0.10 | 0.00 | 94 | 1010.1 |
| 20260509141558 | 24 | 132 | 0.0 | 3.2 | 0.00 | 0.10 | 0.00 | 94 | 1009.8 |
| 20260509140059 | 24 | 132 | 0.0 | 3.2 | 0.00 | 0.10 | 0.00 | 94 | 1009.4 |
| 20260509140001 | 24 | 132 | 0.0 | 3.2 | 0.00 | 0.10 | 0.00 | 94 | 1009.4 |
| 20260509133103 | 24 | 132 | 0.0 | 3.2 | 0.00 | 0.10 | 0.00 | 95 | 1010.6 |
| 20260509131603 | 24 | 132 | 0.0 | 0.0 | 0.00 | 0.10 | 0.00 | 95 | 1010.9 |
| 20260509130105 | 24 | 132 | 0.0 | 3.2 | 0.00 | 0.10 | 0.00 | 95 | 1010.8 |
| 20260509124557 | 24 | 132 | 0.0 | 3.2 | 0.00 | 0.10 | 0.00 | 95 | 1010.7 |
| 20260509123057 | 24 | 132 | 1.6 | 3.2 | 0.00 | 0.10 | 0.00 | 95 | 1010.7 |
| 20260509121558 | 23 | 132 | 0.0 | 0.0 | 0.00 | 0.10 | 0.00 | 95 | 1010.7 |
| 20260509120101 | 23 | 132 | 0.0 | 0.0 | 0.00 | 0.10 | 0.00 | 95 | 1010.7 |
| 20260509114558 | 23 | 132 | 0.0 | 0.0 | 0.00 | 0.10 | 0.00 | 94 | 1010.6 |
| 20260509113109 | 23 | 132 | 0.0 | 0.0 | 0.00 | 0.10 | 0.00 | 94 | 1010.4 |
| 20260509111605 | 23 | 132 | 0.0 | 1.6 | 0.00 | 0.10 | 0.00 | 94 | 1010.1 |
| 20260509110058 | 23 | 132 | 0.0 | 0.0 | 0.00 | 0.10 | 0.00 | 94 | 1010.1 |
| 20260509110001 | 23 | 132 | 0.0 | 0.0 | 0.00 | 0.10 | 0.00 | 94 | 1010.1 |
| 20260509104600 | 23 | 132 | 0.0 | 0.0 | 0.00 | 0.10 | 0.00 | 94 | 1009.7 |
| 20260509103104 | 23 | 132 | 0.0 | 0.0 | 0.00 | 0.10 | 0.00 | 94 | 1009.7 |
| 20260509100059 | 23 | 132 | 0.0 | 0.0 | 0.00 | 0.10 | 0.00 | 94 | 1009.9 |
| 20260509091607 | 24 | 132 | 0.0 | 0.0 | 0.00 | 0.10 | 0.00 | 94 | 1009.4 |
| 20260509090058 | 24 | 132 | 0.0 | 0.0 | 0.00 | 0.10 | 0.00 | 94 | 1010.0 |
| 20260509084559 | 24 | 132 | 0.0 | 0.0 | 0.00 | 0.10 | 0.00 | 94 | 1009.9 |
| 20260509083058 | 24 | 132 | 0.0 | 0.0 | 0.00 | 0.10 | 0.00 | 94 | 1009.7 |
| 20260509081603 | 24 | 132 | 0.0 | 1.6 | 0.00 | 0.10 | 0.00 | 94 | 1009.6 |
| 20260509074559 | 24 | 142 | 0.0 | 1.6 | 0.00 | 0.10 | 0.00 | 94 | 1009.4 |
| 20260509073058 | 24 | 164 | 0.0 | 6.4 | 0.00 | 0.10 | 0.00 | 94 | 1009.2 |
| 20260509071600 | 24 | 128 | 0.0 | 1.6 | 0.00 | 0.10 | 0.00 | 94 | 1009.7 |
| 20260509070105 | 24 | 119 | 0.0 | 3.2 | 0.00 | 0.10 | 0.00 | 94 | 1010.0 |
| 20260509064600 | 24 | 77 | 0.0 | 0.0 | 0.00 | 0.10 | 0.00 | 94 | 1010.3 |
| 20260509063058 | 24 | 77 | 0.0 | 1.6 | 0.00 | 0.10 | 0.00 | 94 | 1010.2 |
| 20260509061615 | 24 | 77 | 0.0 | 3.2 | 0.00 | 0.10 | 0.00 | 94 | 1010.3 |
| 20260509060133 | 24 | 77 | 0.0 | 3.2 | 0.00 | 0.10 | 0.00 | 94 | 1010.3 |
| 20260509054602 | 23 | 77 | 0.0 | 1.6 | 0.00 | 0.10 | 0.00 | 94 | 1010.5 |
| 20260509053055 | 23 | 77 | 0.0 | 4.8 | 0.00 | 0.10 | 0.00 | 94 | 1010.4 |
| 20260509051558 | 23 | 75 | 1.6 | 4.8 | 0.00 | 0.10 | 0.00 | 94 | 1010.3 |
| 20260509050136 | 23 | 87 | 0.0 | 4.8 | 0.00 | 0.10 | 0.00 | 94 | 1010.3 |
| 20260509044603 | 23 | 89 | 0.0 | 4.8 | 0.00 | 0.10 | 0.10 | 94 | 1010.4 |